CW4115 Weather Reports


Display with metric or nautical units.
time (UTC)temp
F
wind
direction
speed
MPH
gust
MPH
rain 1hr
in
rain 24hr
in
rain mn
in
humidity
%
barometer
mb
20260505213340 61 32 3.0 7.0 0.00 0.00 0.00 70 1014.0
20260505210324 62 355 0.0 2.0 0.00 0.00 0.00 69 1013.8
20260505203329 61 273 1.0 2.0 0.00 0.00 0.00 70 1013.9
20260505200344 61 255 1.0 5.0 0.00 0.00 0.00 71 1014.1
20260505193318 60 261 1.0 4.0 0.00 0.00 0.00 72 1014.2
20260505190336 60 235 4.0 5.0 0.00 0.00 0.00 71 1014.1
20260505183338 58 333 0.0 4.0 0.00 0.00 0.00 72 1014.1
20260505180346 58 360 2.0 5.0 0.00 0.00 0.00 72 1014.1
20260505173328 58 360 1.0 3.0 0.00 0.00 0.00 70 1013.6
20260505170323 58 360 3.0 4.0 0.00 0.00 0.00 70 1013.6
20260505163328 57 134 0.0 3.0 0.00 0.00 0.00 72 1013.3
20260505160323 57 360 0.0 0.0 0.00 0.00 0.00 73 1013.4
20260505153326 56 360 2.0 3.0 0.00 0.00 0.00 74 1013.1
20260505150318 55 360 0.0 3.0 0.00 0.00 0.00 75 1013.0
20260505140334 54 360 0.0 0.0 0.00 0.00 0.00 77 1012.6
20260505123335 54 360 0.0 0.0 0.00 0.00 0.00 79 1012.6
20260505120352 53 360 0.0 0.0 0.00 0.00 0.00 79 1012.6
20260505113330 54 360 0.0 0.0 0.00 0.00 0.00 79 1012.6
20260505110322 54 360 0.0 0.0 0.00 0.00 0.00 77 1012.6
20260505100324 54 360 0.0 1.0 0.00 0.00 0.00 75 1012.7
20260505093328 55 261 0.0 2.0 0.00 0.00 0.00 73 1013.0
20260505090324 55 360 1.0 6.0 0.00 0.00 0.00 70 1013.1
20260505083321 55 360 1.0 3.0 0.00 0.00 0.00 69 1013.5
20260505080329 55 360 2.0 6.0 0.00 0.00 0.00 69 1013.6
20260505073327 56 360 0.0 4.0 0.00 0.00 0.00 72 1013.5
20260505070323 55 360 0.0 1.0 0.00 0.00 0.00 77 1013.1
20260505063329 56 360 0.0 2.0 0.00 0.00 0.00 78 1013.1
20260505060329 56 360 0.0 3.0 0.00 0.00 0.00 77 1013.0
20260505053334 57 360 1.0 4.0 0.00 0.00 0.00 75 1013.3
20260505050329 57 360 1.0 3.0 0.00 0.00 0.00 74 1013.5
20260505040341 58 360 2.0 4.0 0.00 0.00 0.00 71 1012.8
20260505033319 59 360 0.0 5.0 0.00 0.00 0.00 68 1012.3
20260505030340 60 281 0.0 5.0 0.00 0.00 0.00 65 1012.3
20260505023320 60 360 1.0 4.0 0.00 0.00 0.00 61 1012.5
20260505020341 61 328 3.0 9.0 0.00 0.00 0.00 60 1012.1
20260505013318 62 320 2.0 8.0 0.00 0.00 0.00 60 1012.2
20260505010318 63 5 3.0 7.0 0.00 0.00 0.00 62 1012.5
20260505003340 63 355 2.0 5.0 0.00 0.00 0.00 62 1012.5
20260505000355 62 270 3.0 6.0 0.00 0.00 0.00 65 1012.5
20260504233357 63 253 2.0 5.0 0.00 0.00 0.00 62 1012.5
20260504230331 64 5 3.0 7.0 0.00 0.00 0.00 61 1012.5
20260504223334 64 311 1.0 6.0 0.00 0.00 0.00 60 1012.5
20260504220329 66 278 3.0 9.0 0.00 0.00 0.00 58 1012.6